IRIDIUM 28

Last updated on Wed Nov 29 2017 00:19:02 GMT+0000 (Coordinated Universal Time)

1 24948U 97051E 17332.20831171 .00000108 00000-0 30672-4 0 9999 2 24948 86.4002 217.3992 0002332 90.5853 269.5610 14.35583162 58114
UTC large
Height (km)
Speed (km/s)
/
Latitude / Longitude
Inclination (degrees)
Orbital Period (minutes)
Azimuth
Elevation
Range (km)
Doppler Factor

Next 0 passes for location: London (51.5072 / 0.1276)

Sorry there are no passes over London.